WetterOnline ( https://www.wetteronline.de )

Wetter aktuell Cottbus

Aktuelles Wetter: Cottbus (70m)

6-stündlich | Neueste Meldungen
Ortszeit Temperatur Wetter
Sa, 20.04. 8:00 7.6° C wolkenlos
Sa, 20.04. 2:00 6.4° C wolkenlos
Fr, 19.04. 20:00 18.9° C wolkenlos
Fr, 19.04. 14:00 21.7° C wolkenlos
Fr, 19.04. 8:00 9.3° C wolkenlos
Fr, 19.04. 2:00 7.6° C wolkenlos
Do, 18.04. 20:00 18.1° C wolkenlos
Do, 18.04. 14:00 19.8° C wolkenlos
Ortszeit Temperatur Wetter
Sa, 20.04. 12:30 21.2° C wolkig
Sa, 20.04. 12:20 21.2° C wolkig
Sa, 20.04. 12:10 20.5° C wolkig
Sa, 20.04. 12:00 19.9° C leicht bewölkt
Sa, 20.04. 11:50 19.9° C wolkig
Sa, 20.04. 11:40 20.3° C wolkig
Sa, 20.04. 11:30 19.6° C wolkig
Sa, 20.04. 11:00 18.4° C leicht bewölkt
Sa, 20.04. 10:30 16.7° C wolkig
Sa, 20.04. 10:00 14.9° C leicht bewölkt
Sa, 20.04. 9:30 13.1° C fast wolkenlos
Ortszeit Relative Feuchte Sichtweite
Sa, 20.04. 8:00 59% 25 km
Sa, 20.04. 2:00 63% 35 km
Fr, 19.04. 20:00 28% 28 km
Fr, 19.04. 14:00 22% 35 km
Fr, 19.04. 8:00 56% 18 km
Fr, 19.04. 2:00 63% 30 km
Do, 18.04. 20:00 29% 50 km
Do, 18.04. 14:00 26% 23 km
Ortszeit Relative Feuchte Sichtweite
Sa, 20.04. 12:30 26% 23 km
Sa, 20.04. 12:20 26% -
Sa, 20.04. 12:10 27% -
Sa, 20.04. 12:00 28% 25 km
Sa, 20.04. 11:50 28% -
Sa, 20.04. 11:40 28% -
Sa, 20.04. 11:30 29% 23 km
Sa, 20.04. 11:00 36% 26 km
Sa, 20.04. 10:30 39% 24 km
Sa, 20.04. 10:00 43% 25 km
Sa, 20.04. 9:30 46% 22 km
Ortszeit Niederschlagsmenge Niederschlagsart
Sa, 20.04. 8:00 0.0 l/m2 in 12 Std. -
Sa, 20.04. 2:00 0.0 l/m2 in 6 Std. -
Fr, 19.04. 20:00 0.0 l/m2 in 12 Std. -
Fr, 19.04. 14:00 0.0 l/m2 in 6 Std. -
Fr, 19.04. 8:00 0.0 l/m2 in 12 Std. -
Fr, 19.04. 2:00 0.0 l/m2 in 6 Std. -
Do, 18.04. 20:00 0.0 l/m2 in 12 Std. -
Do, 18.04. 14:00 0.0 l/m2 in 6 Std. -
Ortszeit Niederschlagsmenge Niederschlagsart
Sa, 20.04. 12:30 0.0 l/m2 in 1 Std. -
Sa, 20.04. 12:20 keine Meldung -
Sa, 20.04. 12:10 keine Meldung -
Sa, 20.04. 12:00 0.0 l/m2 in 1 Std. -
Sa, 20.04. 11:50 keine Meldung -
Sa, 20.04. 11:40 keine Meldung -
Sa, 20.04. 11:30 0.0 l/m2 in 1 Std. -
Sa, 20.04. 11:00 0.0 l/m2 in 1 Std. -
Sa, 20.04. 10:30 0.0 l/m2 in 1 Std. -
Sa, 20.04. 10:00 0.0 l/m2 in 1 Std. -
Sa, 20.04. 9:30 0.0 l/m2 in 1 Std. -
Ortszeit Stärke Spitze Richtung
km/h Bft. km/h Grad Sektor
Sa, 20.04. 8:00 0 0 14 - -
Sa, 20.04. 2:00 4 1 14 360° N
Fr, 19.04. 20:00 6 1 30 20° N
Fr, 19.04. 14:00 13 3 33 50° NO
Fr, 19.04. 8:00 9 2 30 80° O
Fr, 19.04. 2:00 7 2 32 70° O
Do, 18.04. 20:00 11 2 40 80° O
Do, 18.04. 14:00 24 4 39 70° O
Ortszeit Stärke Spitze Richtung
km/h Bft. km/h Grad Sektor
Sa, 20.04. 12:30 6 1 15 350° N
Sa, 20.04. 12:20 6 1 - 350° N
Sa, 20.04. 12:10 6 1 - 340° N
Sa, 20.04. 12:00 7 2 14 20° N
Sa, 20.04. 11:50 7 2 - 20° N
Sa, 20.04. 11:40 4 1 - 20° N
Sa, 20.04. 11:30 6 1 15 350° N
Sa, 20.04. 11:00 4 1 7 20° N
Sa, 20.04. 10:30 4 1 7 40° NO
Sa, 20.04. 10:00 4 1 7 40° NO
Sa, 20.04. 9:30 4 1 7 130° SO
Ortszeit Untergrenze Bedeckung Gattung
total tief tief mittel hoch
Sa, 20.04. 8:00 - 0/8 0/8 - - -
Sa, 20.04. 2:00 - 0/8 0/8 - - -
Fr, 19.04. 20:00 - 0/8 0/8 - - -
Fr, 19.04. 14:00 - 0/8 0/8 - - -
Fr, 19.04. 8:00 - 0/8 0/8 - - -
Fr, 19.04. 2:00 - 0/8 0/8 - - -
Do, 18.04. 20:00 - 0/8 0/8 - - -
Do, 18.04. 14:00 - 0/8 0/8 - - -
Ortszeit Bedeckungsgrad in Achtel und Wolkenuntergrenze
Sa, 20.04. 12:30 8(8100m) 8(9000m)
Sa, 20.04. 12:20 8(8100m) 8(9000m)
Sa, 20.04. 12:10 8(8400m) 8(9000m) 8(9000m)
Sa, 20.04. 12:00 8(8100m) 8(9000m)
Sa, 20.04. 11:50 8(8100m) 8(9000m)
Sa, 20.04. 11:40 8(8100m) 8(9000m)
Sa, 20.04. 11:30 6(8400m) 8(9000m) 8(9000m)
Sa, 20.04. 11:00 8(8700m) 8(9000m)
Sa, 20.04. 10:30 5(9000m) 8(9000m) 8(10500m)
Sa, 20.04. 10:00 7(9000m) 7(10500m)
Sa, 20.04. 9:30 1(9000m)
Ortszeit Luftdruck NN (hPa) Tendenz (hPa in 3 Std.)
Sa, 20.04. 8:00 1032 + 0,3
Sa, 20.04. 2:00 1032 + 0,3
Fr, 19.04. 20:00 1031 - 0,4
Fr, 19.04. 14:00 1032 - 1,2
Fr, 19.04. 8:00 1033 + 1,1
Fr, 19.04. 2:00 1032 + 0,6
Do, 18.04. 20:00 1029 + 0,5
Do, 18.04. 14:00 1030 - 0,9
Ortszeit Luftdruck NN (hPa) Tendenz (hPa in 3 Std.)
Sa, 20.04. 12:30 1030 - 1,1
Sa, 20.04. 12:20 1030 keine Meldung
Sa, 20.04. 12:10 1030 keine Meldung
Sa, 20.04. 12:00 1030 - 1,0
Sa, 20.04. 11:50 1030 keine Meldung
Sa, 20.04. 11:40 1030 keine Meldung
Sa, 20.04. 11:30 1031 - 0,7
Sa, 20.04. 11:00 1031 - 0,5
Sa, 20.04. 10:30 1031 - 0,3
Sa, 20.04. 10:00 1031 0,0
Sa, 20.04. 9:30 1031 + 0,1
Ortszeit Schneehöhe (cm)
Sa, 20.04. 8:00 0
Sa, 20.04. 2:00 0
Fr, 19.04. 20:00 0
Fr, 19.04. 14:00 0
Fr, 19.04. 8:00 0
Fr, 19.04. 2:00 0
Do, 18.04. 20:00 0
Do, 18.04. 14:00 0
Ortszeit Schneehöhe (cm)
Sa, 20.04. 12:30 0
Sa, 20.04. 12:20 0
Sa, 20.04. 12:10 0
Sa, 20.04. 12:00 0
Sa, 20.04. 11:50 0
Sa, 20.04. 11:40 0
Sa, 20.04. 11:30 0
Sa, 20.04. 11:00 0
Sa, 20.04. 10:30 0
Sa, 20.04. 10:00 0
Sa, 20.04. 9:30 0
Link zu dieser Seite / Seite empfehlen

Das Wetter in ...